[[{"header":{"parameterUnit":"m.s-1","parameterCategory":1,"la1":30.2991,"la2":30.254,"lo1":-89.0895,"lo2":-89.0444,"dy":0.0017,"dx":0.0017,"nx":28,"ny":28,"refTime":"2024-08-01T03:00:00:Z","depth":0,"parameterNumber":2,"parameterNumberName":"U-component_of_WINDS"},"data":[0,0,0,0,0,0,0,0,0,0,0,0,0,0,0,0,0,0,0,0,0,0,0,0,0,0,0,0,0,0,0,0,0,0,0,0,0,0,0,0,0,0,0,0,0,0,0,0,0,0,0,0,0,0,0,0,0,0,2.4097,2.4098,0,2.4167,2.4168,2.4169,2.4131,2.4129,2.4127,2.4125,2.42,2.4204,2.4208,0,0,0,0,0,0,0,0,0,0,0,0,0,2.3936,2.3939,2.4097,2.4098,2.4099,2.4167,2.4168,2.4169,2.4131,2.4129,2.4126,2.4124,2.4199,2.4204,2.4208,0,0,0,0,0,0,0,0,0,0,0,0,0,2.4006,2.394,2.4097,2.4088,2.4088,2.4167,2.4168,2.4169,2.4132,2.4129,2.4126,2.4123,2.4198,2.4203,2.4209,2.4301,0,0,2.4226,2.4229,0,0,0,0,0,0,0,0,2.4002,2.4012,2.4088,2.4089,2.4089,2.4137,2.4139,2.4214,2.4132,2.4115,2.4125,2.4122,2.4182,2.4189,2.4208,2.4305,2.4308,2.4227,2.423,2.4233,2.4234,0,0,0,0,0,0,0,2.3997,2.4009,2.4125,2.409,2.409,2.4082,2.4089,2.4153,2.4164,2.4116,2.4114,2.4122,2.4181,2.4203,2.421,2.4309,2.4226,2.4232,2.4235,2.4237,2.4489,2.4493,0,0,0,0,0,0,2.3992,2.4005,2.4122,2.4127,2.4037,2.4088,2.4095,2.4125,2.4163,2.4166,2.4125,2.412,2.4195,2.4203,2.4212,2.4326,2.4232,2.4238,2.4241,2.4486,2.449,2.4494,0,0,0,0,0,0,2.3989,2.4003,2.412,2.4065,2.4079,2.4093,2.4127,2.4127,2.4149,2.4169,2.4172,2.4144,2.4193,2.4204,2.428,2.4328,2.424,2.4246,2.4482,2.4487,2.4492,2.4552,0,0,0,0,0,0,2.3985,2.4002,2.4036,2.4066,2.4083,2.4185,2.413,2.4131,2.4158,2.4153,2.4188,2.4191,2.4191,2.4272,2.4286,2.4334,2.425,2.4478,2.4485,2.449,2.4546,2.4559,2.4569,0,0,0,0,0,2.3979,2.405,2.4038,2.4052,2.4125,2.4188,2.4197,2.4195,2.4162,2.4198,2.4211,2.419,2.432,2.428,2.4295,2.4346,2.4475,2.4483,2.449,2.4541,2.4556,2.4569,0,0,0,0,0,0,2.4026,2.4054,2.4041,2.4123,2.4153,2.4181,2.4225,2.421,2.4251,2.4245,2.4241,2.4249,2.4329,2.4345,2.4299,2.444,2.4393,2.4404,2.4426,2.4441,2.4453,2.4448,2.4255,0,0,0,0,0,2.4045,2.4093,2.4115,2.4186,2.4202,2.4211,2.4238,2.4234,2.4265,2.4278,2.4297,2.433,2.4378,2.441,2.4456,2.4548,2.4557,2.4591,2.4602,2.4612,2.4622,2.4675,2.4692,2.4518,2.4518,2.4518,0,0,2.4087,2.4108,2.4138,2.4196,2.4219,2.427,2.4222,2.4277,2.4316,2.4287,2.436,2.4376,2.4412,2.4497,2.4536,2.4513,2.4672,2.4621,2.4629,2.4634,2.4685,2.4701,2.4716,2.4523,2.4522,2.4521,0,0,2.419,2.4209,2.4272,2.4296,2.4331,2.4337,2.4353,2.4383,2.4392,2.4465,2.4446,2.4492,2.4575,2.4603,2.4628,2.4744,2.4727,2.4759,2.482,2.4873,2.4886,2.4898,2.4943,2.4959,2.4768,2.4768,2.4769,0,2.4238,2.4312,2.4306,2.4364,2.4392,2.4367,2.4433,2.4457,2.4505,2.4526,2.4499,2.4605,2.4627,2.472,2.4749,2.4769,2.4788,2.4755,2.4884,2.4897,2.4908,2.495,2.4967,2.4772,2.4772,2.4771,2.4771,0,2.4371,2.4423,2.447,2.4518,2.455,2.4611,2.4617,2.4651,2.4645,2.4655,2.4732,2.4758,2.481,2.4831,2.4825,2.4925,2.491,2.4884,2.4837,2.4928,2.4969,2.4984,2.4778,2.4776,2.4775,2.4774,0,0,2.4504,2.4549,2.4567,2.459,2.4628,2.4669,2.4731,2.4781,2.4811,2.4846,2.49,2.4971,2.4949,2.4977,2.4974,2.502,2.5114,2.4989,2.4989,2.5013,2.523,2.5251,2.5269,2.5103,2.5106,2.5108,2.5228,0,2.4612,2.4718,2.4716,2.4816,2.4866,2.4845,2.4899,2.4929,2.4941,2.4986,2.4999,2.5051,2.5015,2.5033,2.5077,2.5093,2.5158,2.5084,2.5155,2.5158,2.5149,2.529,2.5311,2.5423,2.5243,2.5245,2.5247,0,2.4751,2.4791,2.4895,2.4929,2.495,2.4998,2.5046,2.5089,2.5124,2.5129,2.5163,2.5153,2.5219,2.5169,2.5261,2.5211,2.524,2.5253,2.5257,2.5265,2.521,2.5304,2.5458,2.5476,2.5271,2.5269,2.5268,0,2.4842,2.4921,2.4995,2.5015,2.5054,2.509,2.5108,2.5141,2.5172,2.5214,2.5235,2.5284,2.5312,2.5351,2.5357,2.532,2.5451,2.54,2.5459,2.546,2.5489,2.5488,2.5652,2.5504,2.5504,2.5503,2.5503,0,2.4963,2.5029,2.5037,2.5082,2.5156,2.5154,2.5228,2.5244,2.5274,2.5324,2.5308,2.5356,2.5359,2.5409,2.5413,2.5491,2.5503,2.5511,2.5512,2.5514,2.5513,2.5534,2.5528,2.5508,2.5507,2.5506,2.5505,0,2.5077,2.5085,2.5164,2.5196,2.5206,2.5259,2.5288,2.5333,2.5343,2.5407,2.5422,2.5438,2.5497,2.5506,2.5574,2.5577,2.5671,2.5662,2.5659,2.5659,2.5718,2.5714,2.5904,2.593,2.5762,2.5764,2.5765,0,2.5155,2.5205,2.5243,2.5275,2.5296,2.5347,2.5379,2.538,2.5415,2.5461,2.5501,2.5557,2.5603,2.5697,2.5717,2.577,2.5764,2.5827,2.5772,2.5774,2.5769,2.5767,2.5774,2.5839,2.5841,2.5842,2.5843,0,2.5294,2.5296,2.5342,2.5391,2.543,2.5468,2.5505,2.5532,2.5538,2.5579,2.5638,2.5673,2.5743,2.5801,2.5854,2.5875,2.5862,2.586,2.5877,2.5881,2.5878,2.5884,2.5691,2.5856,2.5855,2.5854,2.5853,2.5853,2.5395,2.5439,2.5474,2.5527,2.5554,2.5589,2.5634,2.565,2.5699,2.5756,2.5754,2.582,2.5857,2.5927,2.5952,2.6005,2.5985,2.6009,2.6015,2.6022,2.6029,2.5868,2.6014,2.6014,2.6014,2.6013,2.6013,0,2.5535,2.5556,2.5605,2.5657,2.57,2.5682,2.5722,2.5759,2.5817,2.5852,2.5898,2.5968,2.6024,2.6048,2.6104,2.6143,2.6138,2.6158,2.6156,2.6162,2.6042,2.6023,2.6161,2.616,2.616,2.616,2.616,2.616,2.5614,2.569,2.5696,2.5787,2.5808,2.5872,2.5897,2.593,2.5958,2.6037,2.6083,2.6098,2.6131,2.6189,2.6241,2.6247,2.627,2.6293,2.6297,2.6185,2.617,2.6156,2.6138,2.6297,2.6297,2.6412,2.6413,2.6414]},{"header":{"parameterUnit":"m.s-1","parameterCategory":1,"la1":30.2991,"la2":30.254,"lo1":-89.0895,"lo2":-89.0444,"dy":0.0017,"dx":0.0017,"nx":28,"ny":28,"refTime":"2024-08-01T03:00:00:Z","depth":0,"parameterNumber":3,"parameterNumberName":"V-component_of_WINDS"},"data":[0,0,0,0,0,0,0,0,0,0,0,0,0,0,0,0,0,0,0,0,0,0,0,0,0,0,0,0,0,0,0,0,0,0,0,0,0,0,0,0,0,0,0,0,0,0,0,0,0,0,0,0,0,0,0,0,0,0,-1.5792,-1.5791,0,-1.5785,-1.5785,-1.5785,-1.5794,-1.5795,-1.5795,-1.5795,-1.5787,-1.5787,-1.5786,0,0,0,0,0,0,0,0,0,0,0,0,0,-1.581,-1.581,-1.5792,-1.5791,-1.5791,-1.5785,-1.5785,-1.5785,-1.5794,-1.5795,-1.5795,-1.5796,-1.5788,-1.5787,-1.5786,0,0,0,0,0,0,0,0,0,0,0,0,0,-1.5803,-1.581,-1.5792,-1.5795,-1.5796,-1.5786,-1.5785,-1.5785,-1.5794,-1.5795,-1.5795,-1.5796,-1.5788,-1.5787,-1.5786,-1.5772,0,0,-1.5784,-1.5784,0,0,0,0,0,0,0,0,-1.5803,-1.5802,-1.5795,-1.5795,-1.5795,-1.5791,-1.5789,-1.5781,-1.5794,-1.5795,-1.5795,-1.5796,-1.5788,-1.5787,-1.5785,-1.5771,-1.5771,-1.5784,-1.5783,-1.5783,-1.5783,0,0,0,0,0,0,0,-1.5804,-1.5803,-1.5789,-1.5795,-1.5795,-1.5797,-1.5797,-1.5788,-1.5789,-1.5795,-1.5795,-1.5795,-1.5788,-1.5786,-1.5785,-1.5771,-1.5784,-1.5783,-1.5783,-1.5782,-1.5747,-1.5746,0,0,0,0,0,0,-1.5804,-1.5803,-1.5789,-1.5789,-1.5801,-1.5796,-1.5796,-1.5792,-1.5789,-1.5789,-1.5794,-1.5795,-1.5787,-1.5786,-1.5785,-1.5769,-1.5783,-1.5782,-1.5782,-1.5747,-1.5747,-1.5746,0,0,0,0,0,0,-1.5804,-1.5803,-1.579,-1.5796,-1.5795,-1.5795,-1.5791,-1.5792,-1.5789,-1.5789,-1.5789,-1.5792,-1.5787,-1.5786,-1.5775,-1.5769,-1.5782,-1.5781,-1.5748,-1.5747,-1.5746,-1.5736,0,0,0,0,0,0,-1.5805,-1.5803,-1.5797,-1.5796,-1.5794,-1.578,-1.5791,-1.5791,-1.5788,-1.5789,-1.5786,-1.5786,-1.5788,-1.5777,-1.5775,-1.5768,-1.5781,-1.5748,-1.5747,-1.5747,-1.5737,-1.5735,-1.5733,0,0,0,0,0,-1.5806,-1.5794,-1.5797,-1.5795,-1.5787,-1.578,-1.5779,-1.5782,-1.5787,-1.5782,-1.5782,-1.5786,-1.577,-1.5775,-1.5773,-1.5766,-1.5749,-1.5748,-1.5747,-1.5738,-1.5735,-1.5733,0,0,0,0,0,0,-1.5793,-1.5794,-1.5797,-1.5785,-1.5782,-1.5782,-1.5775,-1.5779,-1.5774,-1.5775,-1.5778,-1.5777,-1.5767,-1.5765,-1.5772,-1.5753,-1.576,-1.5759,-1.5754,-1.5752,-1.575,-1.5751,-1.578,0,0,0,0,0,-1.5789,-1.5784,-1.5784,-1.5773,-1.5772,-1.5774,-1.577,-1.5773,-1.577,-1.5769,-1.5768,-1.5765,-1.5759,-1.5755,-1.575,-1.5737,-1.5737,-1.5731,-1.5729,-1.5728,-1.5726,-1.572,-1.5718,-1.5743,-1.5743,-1.5743,0,0,-1.5781,-1.578,-1.5776,-1.5771,-1.5769,-1.5763,-1.5772,-1.5765,-1.5761,-1.5768,-1.5758,-1.5758,-1.5754,-1.5743,-1.5738,-1.5741,-1.572,-1.5726,-1.5725,-1.5724,-1.5719,-1.5717,-1.5715,-1.5742,-1.5742,-1.5742,0,0,-1.5762,-1.5761,-1.5752,-1.5751,-1.5749,-1.5751,-1.5749,-1.5747,-1.5748,-1.5738,-1.5744,-1.5739,-1.5728,-1.5726,-1.5724,-1.5707,-1.5711,-1.5705,-1.5695,-1.569,-1.5688,-1.5686,-1.5681,-1.5679,-1.5703,-1.5703,-1.5703,0,-1.5751,-1.5743,-1.5747,-1.574,-1.5738,-1.5745,-1.5737,-1.5735,-1.5731,-1.5729,-1.5734,-1.5722,-1.572,-1.5709,-1.5705,-1.5703,-1.5701,-1.5705,-1.5688,-1.5686,-1.5685,-1.568,-1.5677,-1.5703,-1.5703,-1.5703,-1.5703,0,-1.5731,-1.5725,-1.5718,-1.5716,-1.5712,-1.5705,-1.5708,-1.5704,-1.5707,-1.5708,-1.57,-1.5698,-1.5693,-1.5691,-1.5693,-1.568,-1.5683,-1.5687,-1.5695,-1.5682,-1.5677,-1.5675,-1.5702,-1.5702,-1.5702,-1.5702,0,0,-1.5703,-1.5704,-1.5702,-1.5701,-1.5701,-1.5696,-1.5689,-1.5685,-1.5683,-1.568,-1.5674,-1.5667,-1.5671,-1.5669,-1.5671,-1.5666,-1.5654,-1.5672,-1.5672,-1.5669,-1.5641,-1.5638,-1.5636,-1.5657,-1.5656,-1.5656,-1.5642,0,-1.5686,-1.5674,-1.5678,-1.5667,-1.5662,-1.5669,-1.5663,-1.5662,-1.5663,-1.5659,-1.566,-1.5655,-1.5662,-1.566,-1.5656,-1.5656,-1.5648,-1.5657,-1.5652,-1.5652,-1.5653,-1.5633,-1.5629,-1.5616,-1.564,-1.5639,-1.5639,0,-1.5663,-1.5661,-1.5649,-1.5651,-1.5649,-1.5644,-1.5641,-1.5637,-1.5637,-1.5638,-1.5636,-1.564,-1.5633,-1.5641,-1.5632,-1.5639,-1.5637,-1.5637,-1.5636,-1.5636,-1.5645,-1.5633,-1.5611,-1.561,-1.5636,-1.5636,-1.5637,0,-1.5646,-1.564,-1.5632,-1.5632,-1.5633,-1.5629,-1.5629,-1.5629,-1.5627,-1.5625,-1.5624,-1.5621,-1.5619,-1.5616,-1.5619,-1.5625,-1.5611,-1.5619,-1.5612,-1.5612,-1.5609,-1.5609,-1.5587,-1.5607,-1.5607,-1.5607,-1.5607,0,-1.5626,-1.5618,-1.5625,-1.562,-1.5613,-1.5618,-1.561,-1.5611,-1.5611,-1.5607,-1.5612,-1.5608,-1.5613,-1.5609,-1.5611,-1.5605,-1.5604,-1.5605,-1.5605,-1.5604,-1.5604,-1.5603,-1.5605,-1.5606,-1.5606,-1.5606,-1.5607,0,-1.5605,-1.5609,-1.5601,-1.5604,-1.5604,-1.5598,-1.56,-1.5596,-1.5599,-1.5593,-1.5593,-1.5596,-1.5592,-1.5595,-1.5591,-1.5593,-1.5584,-1.5586,-1.5584,-1.5585,-1.5579,-1.558,-1.5556,-1.5554,-1.5574,-1.5574,-1.5574,0,-1.5592,-1.5587,-1.5589,-1.5587,-1.5588,-1.5584,-1.5583,-1.5588,-1.5586,-1.5585,-1.5582,-1.5579,-1.5577,-1.557,-1.5572,-1.557,-1.5572,-1.5564,-1.5571,-1.5571,-1.5573,-1.5573,-1.5573,-1.5562,-1.5562,-1.5562,-1.5562,0,-1.5569,-1.5572,-1.557,-1.5569,-1.5567,-1.5566,-1.5565,-1.5564,-1.5569,-1.5567,-1.5563,-1.5562,-1.5559,-1.5556,-1.5554,-1.5554,-1.5559,-1.5559,-1.5558,-1.5557,-1.5557,-1.5558,-1.5581,-1.556,-1.556,-1.556,-1.556,-1.556,-1.5552,-1.5549,-1.555,-1.5548,-1.5549,-1.5548,-1.5545,-1.5548,-1.5545,-1.5544,-1.5547,-1.5543,-1.5544,-1.5542,-1.5542,-1.5539,-1.5543,-1.554,-1.554,-1.5539,-1.5539,-1.5557,-1.5539,-1.5539,-1.5539,-1.5539,-1.5539,0,-1.5531,-1.5533,-1.5531,-1.553,-1.5529,-1.5534,-1.5534,-1.5533,-1.553,-1.553,-1.5529,-1.5526,-1.5523,-1.5526,-1.5524,-1.5521,-1.5524,-1.5521,-1.5521,-1.5521,-1.5535,-1.5537,-1.5519,-1.5519,-1.5519,-1.5519,-1.5519,-1.5519,-1.5519,-1.5514,-1.5517,-1.5512,-1.5514,-1.5511,-1.5511,-1.5511,-1.5511,-1.5508,-1.5507,-1.5509,-1.551,-1.5509,-1.5507,-1.5508,-1.5507,-1.5504,-1.5505,-1.5518,-1.552,-1.5522,-1.5524,-1.5504,-1.5503,-1.5492,-1.5492,-1.5492]}]]